Date String (YYYY-MM-DD hh:mm:ss) UTC,Instrument flags,Ambient pressure (hPa),Sample flow (lpm),Bypass flow (lpm),Sample temperature (°C),Ambient temperature (°C),ASC tube jacket temperature (°C),LED temperature (°C),Box temperature (°C),Sample RH (%),Span deviation,Mass concentration (μg/m³),Mass concentration (μg/m³),Mass concentration (μg/m³)
DateTimeUTC,F1_M11,P_M11,Q1_M11,Q2_M11,T1_M11,T2_M11,T3_M11,T4_M11,T5_M11,U1_M11,ZSPAN_M11,X0_M11,X2_M11,X1_M11
2022-03-06 08:00:00,,0824.1,5.00,0.00,21.5,21.0,00.0,30.7,23.1,12.2,0000.0,0004.92,0003.27,0003.08
2022-03-06 08:01:00,,0824.1,5.01,0.00,21.6,22.0,00.0,30.7,23.4,12.2,0000.0,0004.86,0003.26,0003.09
2022-03-06 08:02:00,,0824.1,5.01,0.00,21.8,22.7,00.0,30.8,23.7,12.1,0000.0,0004.74,0003.23,0003.08
2022-03-06 08:03:00,,0824.1,4.99,0.00,21.9,22.5,00.0,30.8,23.8,12.1,0000.0,0004.59,0003.22,0003.08
2022-03-06 08:04:00,,0824.0,4.98,0.00,21.9,22.0,00.0,30.8,23.7,12.2,0000.0,0004.05,0003.22,0003.09
2022-03-06 08:05:00,,0824.0,5.00,0.00,21.8,21.7,00.0,30.8,23.5,12.2,0000.0,0004.02,0003.22,0003.09
2022-03-06 08:06:00,,0824.0,5.00,0.00,21.8,21.5,00.0,30.8,23.4,12.3,0000.0,0003.99,0003.25,0003.13
2022-03-06 08:07:00,,0824.0,5.00,0.00,21.7,21.3,00.0,30.8,23.3,12.3,0000.0,0003.99,0003.28,0003.18
2022-03-06 08:08:00,,0824.0,5.00,0.00,21.6,21.1,00.0,30.8,23.1,12.3,0000.0,0004.07,0003.34,0003.23
2022-03-06 08:09:00,,0824.0,5.01,0.00,21.5,21.0,00.0,30.7,23.0,12.4,0000.0,0004.25,0003.42,0003.30
2022-03-06 08:10:00,,0824.0,5.00,0.00,21.5,20.8,00.0,30.7,23.0,12.5,0000.0,0004.22,0003.50,0003.37
2022-03-06 08:11:00,,0824.0,5.00,0.00,21.4,20.7,00.0,30.7,22.9,12.5,0000.0,0004.48,0003.59,0003.43
2022-03-06 08:12:00,,0824.0,5.00,0.00,21.4,20.6,00.0,30.7,22.9,12.6,0000.0,0004.60,0003.65,0003.48
2022-03-06 08:13:00,,0824.0,5.00,0.00,21.4,21.3,00.0,30.7,23.1,12.6,0000.0,0004.66,0003.67,0003.50
2022-03-06 08:14:00,,0824.1,5.01,0.00,21.6,22.2,00.0,30.7,23.5,12.5,0000.0,0004.71,0003.69,0003.51
2022-03-06 08:15:00,,0824.1,5.00,0.00,21.8,22.7,00.0,30.7,23.7,12.3,0000.0,0004.72,0003.69,0003.51
2022-03-06 08:16:00,,0824.1,4.99,0.00,21.8,22.5,00.0,30.8,23.7,12.3,0000.0,0004.65,0003.68,0003.52
2022-03-06 08:17:00,,0824.1,5.00,0.00,21.8,22.1,00.0,30.8,23.5,12.3,0000.0,0004.61,0003.66,0003.51
2022-03-06 08:18:00,,0824.0,5.00,0.00,21.7,21.8,00.0,30.8,23.3,12.3,0000.0,0004.58,0003.63,0003.46
2022-03-06 08:19:00,,0824.0,5.00,0.00,21.6,21.5,00.0,30.7,23.2,12.4,0000.0,0004.43,0003.57,0003.42
2022-03-06 08:20:00,,0824.0,4.99,0.00,21.6,21.2,00.0,30.7,23.1,12.4,0000.0,0004.28,0003.50,0003.35
2022-03-06 08:21:00,,0824.0,4.99,0.00,21.5,21.0,00.0,30.7,23.0,12.5,0000.0,0004.07,0003.42,0003.29
2022-03-06 08:22:00,,0824.0,5.01,0.00,21.4,20.8,00.0,30.7,22.9,12.5,0000.0,0003.87,0003.33,0003.23
2022-03-06 08:23:00,,0824.1,4.99,0.00,21.3,20.7,00.0,30.6,22.8,12.6,0000.0,0003.91,0003.29,0003.18
2022-03-06 08:24:00,,0824.1,5.00,0.00,21.4,21.2,00.0,30.6,23.0,12.6,0000.0,0004.03,0003.31,0003.17
2022-03-06 08:25:00,,0824.1,5.00,0.00,21.5,22.1,00.0,30.7,23.3,12.5,0000.0,0004.03,0003.30,0003.15
2022-03-06 08:26:00,,0824.1,5.01,0.00,21.7,22.7,00.0,30.7,23.7,12.4,0000.0,0004.20,0003.31,0003.15
2022-03-06 08:27:00,,0824.1,4.99,0.00,21.8,22.4,00.0,30.7,23.6,12.4,0000.0,0004.25,0003.31,0003.15
2022-03-06 08:28:00,,0824.1,5.00,0.00,21.7,22.1,00.0,30.7,23.4,12.4,0000.0,0004.33,0003.34,0003.16
2022-03-06 08:29:00,,0824.1,5.00,0.00,21.6,21.7,00.0,30.7,23.2,12.5,0000.0,0004.37,0003.36,0003.18
2022-03-06 08:30:00,,0824.0,5.00,0.00,21.6,21.4,00.0,30.7,23.1,12.5,0000.0,0004.41,0003.38,0003.20
2022-03-06 08:31:00,,0824.0,5.01,0.00,21.5,21.2,00.0,30.7,23.0,12.6,0000.0,0004.40,0003.38,0003.21
2022-03-06 08:32:00,,0824.0,5.00,0.00,21.4,20.9,00.0,30.7,22.9,12.6,0000.0,0004.45,0003.40,0003.23
2022-03-06 08:33:00,,0823.9,5.00,0.00,21.4,20.8,00.0,30.6,22.8,12.7,0000.0,0004.52,0003.43,0003.24
2022-03-06 08:34:00,,0823.9,5.00,0.00,21.3,20.8,00.0,30.6,22.8,12.8,0000.0,0004.48,0003.43,0003.25
2022-03-06 08:35:00,,0823.9,5.00,0.00,21.4,21.5,00.0,30.6,23.1,12.7,0000.0,0004.39,0003.42,0003.26
2022-03-06 08:36:00,,0823.9,5.00,0.00,21.6,22.4,00.0,30.6,23.4,12.6,0000.0,0004.38,0003.42,0003.28
2022-03-06 08:37:00,,0823.9,5.00,0.00,21.7,22.7,00.0,30.7,23.6,12.5,0000.0,0004.31,0003.43,0003.28
2022-03-06 08:38:00,,0823.9,5.01,0.00,21.7,22.2,00.0,30.7,23.5,12.5,0000.0,0004.29,0003.44,0003.29
2022-03-06 08:39:00,,0823.9,4.99,0.00,21.6,21.9,00.0,30.7,23.3,12.5,0000.0,0004.44,0003.47,0003.30
2022-03-06 08:40:00,,0823.9,5.01,0.00,21.6,21.5,00.0,30.7,23.1,12.6,0000.0,0004.51,0003.48,0003.31
2022-03-06 08:41:00,,0823.9,5.00,0.00,21.5,21.2,00.0,30.6,23.0,12.6,0000.0,0004.61,0003.51,0003.31
2022-03-06 08:42:00,,0823.8,4.99,0.00,21.4,20.9,00.0,30.6,22.9,12.7,0000.0,0004.66,0003.53,0003.32
2022-03-06 08:43:00,,0823.8,5.01,0.00,21.4,20.7,00.0,30.6,22.8,12.7,0000.0,0004.65,0003.54,0003.33
2022-03-06 08:44:00,,0823.8,4.98,0.00,21.3,20.6,00.0,30.6,22.7,12.7,0000.0,0004.66,0003.55,0003.35
2022-03-06 08:45:00,,0823.8,5.00,0.00,21.2,20.6,00.0,30.5,22.7,12.8,0000.0,0004.67,0003.57,0003.37
2022-03-06 08:46:00,,0823.8,5.00,0.00,21.3,21.3,00.0,30.5,22.9,12.7,0000.0,0004.67,0003.59,0003.38
2022-03-06 08:47:00,,0823.8,5.00,0.00,21.5,22.2,00.0,30.6,23.3,12.6,0000.0,0004.69,0003.60,0003.39
2022-03-06 08:48:00,,0823.8,5.00,0.00,21.7,22.7,00.0,30.6,23.6,12.5,0000.0,0004.64,0003.62,0003.41
2022-03-06 08:49:00,,0823.8,4.99,0.00,21.7,22.4,00.0,30.6,23.4,12.5,0000.0,0004.60,0003.64,0003.45
2022-03-06 08:50:00,,0823.8,5.00,0.00,21.6,22.0,00.0,30.6,23.3,12.5,0000.0,0004.49,0003.65,0003.48
2022-03-06 08:51:00,,0823.8,5.01,0.00,21.6,21.7,00.0,30.6,23.2,12.5,0000.0,0004.49,0003.69,0003.52
2022-03-06 08:52:00,,0823.7,4.99,0.00,21.5,21.4,00.0,30.6,23.1,12.6,0000.0,0004.47,0003.71,0003.55
2022-03-06 08:53:00,,0823.7,5.00,0.00,21.4,21.0,00.0,30.6,22.9,12.6,0000.0,0004.55,0003.76,0003.59
2022-03-06 08:54:00,,0823.7,5.00,0.00,21.4,20.8,00.0,30.6,22.8,12.7,0000.0,0004.70,0003.80,0003.62
2022-03-06 08:55:00,,0823.7,5.02,0.00,21.3,20.7,00.0,30.5,22.7,12.7,0000.0,0004.75,0003.82,0003.65
2022-03-06 08:56:00,,0823.7,5.00,0.00,21.2,20.5,00.0,30.5,22.6,12.8,0000.0,0004.72,0003.85,0003.69
2022-03-06 08:57:00,,0823.7,5.00,0.00,21.2,21.0,00.0,30.5,22.8,12.7,0000.0,0004.80,0003.89,0003.72
2022-03-06 08:58:00,,0823.7,4.98,0.00,21.4,21.9,00.0,30.5,23.2,12.6,0000.0,0004.88,0003.93,0003.76
2022-03-06 08:59:00,,0823.7,5.00,0.00,21.6,22.6,00.0,30.6,23.5,12.5,0000.0,0005.42,0003.98,0003.80
